www.pogodaiklimat.ru

Погода и климат >> Архив погоды >> Молдова >> Кишинев


АРХИВ ПОГОДЫ в Кишиневе

Время (UTC), дата Ветер
(напр.,м/с)
 
Видим.   Явления Облачность Т
(С)
Тd
(С)
f
(%)
Тe
(С)
Тes
(С)
Комфортность P
(гПа)
Po
(гПа)
Тmin
(С)
Tmax
(С)
R
(мм)
R24
(мм)
S
(см)
03 12.01 В 2 10 км 10/8 600 м
[Sc Ac trans]
+0.6 -0.7 91 -3 -3 по сезону 1022.2 1000.8
06 12.01 СВ 4 10 км 10/6 600 м
[Sc Ac trans]
+0.1 -1.5 89 -5 -5 по сезону 1023.9 1002.5 +0.1
09 12.01 СВ 2 10 км 10/5 600 м
[Sc Ac trans]
+0.5 -2.2 82 -3 -2 по сезону 1026.9 1005.4
12 12.01 В 3 20 км 9/5 600 м
[Sc Ac trans]
+1.8 -4.3 64 -2 -2 по сезону 1027.0 1005.6
15 12.01 В 3 20 км 10/8 600 м
[Sc Ac trans]
+1.1 -3.4 72 -3 -3 по сезону 1028.6 1007.1
18 12.01 В 3 20 км 10/10 600 м
[Sc]
-0.1 -4.4 73 -5 -5 по сезону 1030.8 1009.2 +2.8
21 12.01 В 3 20 км 10/8 600 м
[Sc Ac trans]
-1.0 -4.9 75 -6 -6 по сезону 1032.4 1010.7
00 13.01 СВ 3 20 км 10/5 600 м
[Sc Ac trans]
-1.2 -4.4 79 -6 -6 по сезону 1033.7 1011.9
03 13.01 СВ 5 20 км 4/0
[Ac trans Ci fib]
-2.0 -5.5 77 -8 -8 по сезону 1034.2 1012.4
06 13.01 В 3 10 км слабый ливневой снег 10/10 600 м
[Cb calv]
-1.8 -4.5 82 -7 -7 по сезону 1035.9 1014.1 -2.3 0.0
09 13.01 В 5 20 км {ливн. осадки} 9/8 600 м
[Cu med, cong Ac trans Ci fib]
-1.2 -7.3 63 -7 -7 по сезону 1036.8 1015.0
12 13.01 В 4 20 км в посл. час ливневой снег 10/8 600 м
[Cb calv Ac trans]
-1.3 -7.0 65 -7 -7 прохладно 1035.8 1014.0
15 13.01 СВ 2 20 км слабый ливневой снег 10/10 600 м
[Cb calv]
-2.5 -6.5 74 -6 -6 по сезону 1035.5 1013.6
18 13.01 В 3 10 км слабый ливневой снег 10/10 600 м
[Cb calv]
-3.0 -6.8 75 -8 -8 прохладно 1036.0 1014.0 -0.4 0.0
21 13.01 СВ 4 10 км слабый снег 10/10 600 м
[Sc]
-4.8 -10.4 65 -11 -11 холодно 1036.2 1014.1
00 14.01 В 2 10 км слабый снег 10/10 600 м
[Sc]
-5.5 -10.5 68 -10 -10 прохладно 1036.0 1013.8
03 14.01 СВ 2 10 км слабый снег 10/10 600 м
[Sc]
-5.9 -10.5 70 -10 -10 прохладно 1035.7 1013.5
06 14.01 СВ 2 10 км слабый снег 10/10 600 м
[Sc]
-6.4 -11.7 66 -10 -10 прохладно 1035.2 1013.0 -6.4 0.0 <0.5
09 14.01 В 4 20 км в посл. час снег 10/8 600 м
[Sc Ac trans]
-6.2 -12.5 61 -12 -12 холодно 1035.9 1013.7
12 14.01 СВ 3 10 км слабый снег 10/10 600 м
[Sc]
-5.7 -11.2 65 -11 -11 очень
холодно
1034.4 1012.3
15 14.01 СВ 2 20 км слабый снег 10/8 600 м
[Sc Ac trans]
-6.0 -10.9 68 -10 -10 холодно 1034.4 1012.2
18 14.01 В 3 20 км слабый снег 10/10 600 м
[Sc]
-6.8 -12.5 64 -12 -12 холодно 1034.8 1012.6 -5.2 0.0
21 14.01 С 2 20 км слабый снег 10/10 600 м
[Sc]
-7.0 -12.1 67 -11 -11 холодно 1035.8 1013.5
00 15.01 С 3 10 км слабый снег 10/10 600 м
[Sc]
-7.9 -11.1 78 -14 -14 очень
холодно
1034.5 1012.2
03 15.01 С 1 10 км слабый снег 10/8 600 м
[Sc Ac trans]
-7.9 -10.9 79 -10 -10 прохладно 1034.4 1012.1
06 15.01 С 2 20 км {снег} 9/1 600 м
[Sc Ac trans Ci fib]
-9.3 -12.0 81 -14 -14 очень
холодно
1034.3 1011.9 -9.4 0.0
09 15.01 С 2 10 км слабый снег 8/8 600 м
[Cu med, cong]
-8.0 -11.3 77 -12 -12 очень
холодно
1037.4 1015.0
12 15.01 С 2 10 км {снег} 1/1 600 м
[Cu hum]
-5.5 -11.4 63 -9 -8 холодно 1035.3 1013.0
15 15.01 штиль 0 20 км 3/0
[Ac lent Ci fib]
-6.0 -11.5 65 -7 -7 прохладно 1031.8 1009.7
18 15.01 штиль 0 20 км 4/0
[Ac trans Ci fib]
-7.0 -11.5 70 -8 -8 прохладно 1031.0 1008.8 -4.8 0.0
21 15.01 СЗ 1 20 км 4/0
[Ac trans Ci fib]
-8.8 -11.8 79 -11 -11 холодно 1030.2 1007.9
00 16.01 С 1 10 км 4/0
[Ac trans Ci fib]
-9.5 -12.1 81 -12 -12 холодно 1028.1 1005.8
03 16.01 штиль 0 10 км 4/0
[Ac trans]
-10.2 -12.1 86 -11 -11 холодно 1025.2 1002.9
06 16.01 В 2 10 км слабый ливневой снег 10/10 600 м
[Cb calv]
-9.0 -10.8 87 -14 -14 очень
холодно
1029.7 1007.4 -10.7 0.0 <0.5
09 16.01 В 2 4000 м слабый ливневой снег 10/10 600 м
[Cb calv]
-6.5 -7.9 90 -11 -11 холодно 1021.3 999.4
12 16.01 СВ 2 10 км слабый ливневой снег 10/10 600 м
[Cb calv]
-5.3 -6.7 90 -10 -10 холодно 1016.0 994.3
15 16.01 В 1 20 км {ливн. осадки} 10/10 600 м
[Sc]
-5.0 -6.8 87 -7 -7 прохладно 1013.7 992.1
18 16.01 В 1 20 км {ливн. осадки} 10/10 600 м
[Sc]
-5.4 -7.1 88 -8 -8 прохладно 1011.6 990.0 -4.9 0.5
21 16.01 ЮВ 2 20 км 10/10 600 м
[Sc]
-5.5 -6.3 94 -10 -10 прохладно 1008.9 987.3
00 17.01 Ю 3 20 км 10/10 600 м
[Sc]
-6.5 -7.3 94 -12 -12 холодно 1007.5 985.9
03 17.01 Ю 3 10 км {ливн. осадки} 10/10 600 м
[Cb calv]
-7.5 -8.7 91 -13 -13 холодно 1004.4 982.8
06 17.01 З 3 10 км {ливн. осадки} 10/6 600 м
[Sc Ac trans]
-5.5 -6.9 90 -11 -11 прохладно 1002.3 980.9 -7.5 0.0 1
09 17.01 ЮЗ 2 10 км 8/0
[Ac trans Ci fib]
-2.0 -5.2 79 -6 -4 по сезону 1001.0 979.9
12 17.01 Ю 2 10 км 10/3 600 м
[Sc Ac trans]
-0.4 -3.6 79 -4 -3 по сезону 999.9 978.9
15 17.01 штиль 0 10 км ледяной дождь 10/10 600 м
[Sc]
-0.4 -2.9 83 -2 -2 по сезону 998.8 977.8
18 17.01 СВ 3 4000 м слабая крупа {ливн. осадки, снег} [диам. гололёда 0 мм] 10/10 600 м
[Cb cap]
-0.5 -1.1 96 -5 -5 по сезону 996.4 975.5 -0.1 5
21 17.01 С 3 1000 м дымка {ливн. осадки} [диам. гололёда 0 мм] 10/10 600 м
[Cb calv]
-0.5 -0.9 97 -6 -6 по сезону 994.9 974.0
00 18.01 С 4 1000 м ливневой дождь со снегом [диам. гололёда 0 мм] 10/10 600 м
[Cb calv]
0.0 -0.4 97 -6 -6 по сезону 992.8 972.0
03 18.01 С 7
{12}
1000 м ливневой снег [диам. гололёда 0 мм] 10/10 600 м
[Cb calv]
-0.3 -0.7 97 -8 -8 по сезону 992.8 972.0
06 18.01 С 8
{13}
500 м ливневой снег {метель} [диам. гололёда 3 мм] ?/? 0.0 -0.4 97 -8 -8 по сезону 995.3 974.6 -0.8 15 10
09 18.01 С 9
{14}
500 м ливневой дождь со снегом {метель} [диам. гололёда 9 мм] ?/? -0.8 -1.2 97 -9 -9 прохладно 998.6 977.6
12 18.01 СЗ 8
{15}
1000 м ливневой дождь со снегом {метель} [диам. сложн. отлож. 9 мм] 10/10 600 м
[Cb calv]
-1.2 -1.5 98 -9 -9 холодно 1001.0 979.9
15 18.01 С 8
{14}
10 км позёмок {ливн. осадки, метель} [диам. сложн. отлож. 9 мм] 10/8 600 м
[Cb calv Ac trans]
-1.2 -1.6 97 -9 -9 холодно 1003.7 982.6
18 18.01 С 9
{13}
10 км позёмок {ливн. осадки, метель} [диам. сложн. отлож. 9 мм] 10/10 600 м
[Cb calv]
-1.4 -2.1 95 -10 -10 холодно 1004.2 984.9 0.0 4
21 18.01 СЗ 5 10 км позёмок {метель} [диам. сложн. отлож. 9 мм] 10/10 600 м
[Cb calv]
-1.7 -2.7 93 -8 -8 прохладно 1007.3 986.1
00 19.01 СЗ 3 10 км {метель} [диам. сложн. отлож. 9 мм] 5/1 600 м
[Cb calv Ac trans]
-3.4 -4.5 92 -9 -9 прохладно 1007.7 986.3

 

Местоположение метеостанции Кишинев (Молдова): широта 47.02 долгота 28.98 высота над уровнем моря 173 м.

В архиве по умолчанию представлена погода в Кишиневе за последнюю неделю. Архивные данные за месяц целиком и за предыдущие месяцы, начиная с января 2011 года, Вы можете получить, выбрав интересующий диапазон дат из раскрывающегося списка и нажав кнопку "Ввод!".

Внимание! Время в таблицах - всемирное. Для получения местного времени необходимо прибавить поправку, которая в Кишиневе равна 2 ч.

Смотрите также архив погоды в соседних городах и на ближайших метеорологических станциях:

Погода в Балцате (Молдова) (5 км)
Погода в Дубоссарах (Молдова) (29 км)
Погода в Кодрах (Молдова) (46 км)
Погода в Тирасполе (Молдова) (49 км)
Погода в Бравичах (Молдова) (57 км)
Погода в Штефан Водэ (Молдова) (67 км)
Погода в Корнестах (Молдова) (76 км)
Погода в Затишье (Одесская область, Украина) (76 км)
Погода в Леове (Молдова) (80 км)
Погода в Заставе (Одесская область, Украина) (81 км)

Пояснения к столбцам:

Ветер - указаны скорость ветра в м/с - средняя за 10 мин, порывы в срок и между сроками (в фигурных скобках) и направление, откуда дует ветер: С - северный, СВ - северо-восточный, В - восточный, ЮВ - юго-восточный, Ю - южный, ЮЗ - юго-западный, З - западный, СЗ - северо-западный.
Видимость - горизонтальная дальность видимости в метрах или километрах. При видимости от 1 до 10 км при отсутствии осадков обычно наблюдается дымка, при ухудшении видимости до 1 км и менее - туман. В сухую погоду видимость может ухудшаться дымом, пылью или мглою.
Явления - указаны атмосферные явления, наблюдавшиеся в срок или в последний час перед сроком; фигурными скобками обозначены явления, наблюдавшиеся между сроками (за 1-3 часа до срока); квадратными скобками обозначены град или гололедные отложения с указанием их диаметра в мм.
Облачность - указаны через наклонную черту общая и нижняя облачность в баллах и высота нижней границы облаков в метрах; квадратными скобками обозначены формы облаков: Ci - перистые, Cs - перисто-слоистые, Cc - перисто-кучевые, Ac - высококучевые, As - высокослоистые, Sc - слоисто-кучевые, Ns - слоисто-дождевые, Cu - кучевые, Cb - кучево-дождевые. Подробнее классификацию облаков см. в Атласе облаков (PDF).
T - Температура воздуха - температура, измеренная на высоте 2 м над землей.
Td - Температура точки росы - температура, при понижении до которой содержащийся в воздухе водяной пар достигнет насыщения.
f - Относительная влажность воздуха - влажноcть воздуха, измеренная на высоте 2 м над землей.
Te - Эффективная температура - температура, которую ощущает одетый по сезону человек в тени. Характеристика душности погоды. При расчете учитывается влияние влажности воздуха и скорости ветра на теплоощущения человека.
Tes - Эффективная температура на солнце - температура, которую ощущает человек, с поправкой на солнечный нагрев. Характеристика знойности погоды. Зависит от высоты солнца над горизонтом, облачности и скорости ветра. Ночью, в пасмурную погоду, а также при ветре 12 м/с и более поправка равна нулю.
P - Атмосферное давление - приведенное к уровню моря атмосферное давление.
Po - Атмосферное давление - измеренное на уровне метеостанции атмосферное давление.
Tmin - Минимальная температура - минимум температуры воздуха на высоте 2 м над землей.
Tmax - Максимальная температура - максимум температуры воздуха на высоте 2 м над землей.
R - Количество осадков - Количество выпавших осадков за период времени, мм. При наведении курсора мыши на число - период времени, за который выпало указанное количество осадков.
R24 - Количество осадков - Количество выпавших осадков за 24 часа, мм.
S - Снежный покров - Высота снежного покрова, см. При наведении курсора мыши на число - состояние снежного покрова и степень покрытия местности в баллах.